Home   Weather   Penang   Past weeks
Flag for Malaysia

Past Weather in Penang, Penang, Malaysia — Yesterday and Last 2 Weeks

Now
77 °F

Thunderstorms. Partly cloudy.


Feels Like: 78 °F
Forecast: 87 / 75 °F
Wind: 3 mph from Southeast

Location: Butterworth Air Base

Current Time: Oct 14, 2019 at 9:58:25 pm

Latest Report: Oct 14, 2019 at 9:00 pm


Visibility: 4 mi

Pressure: 29.86 "Hg

Humidity: 100%

Dew Point: 77 °F

Location of PenangLocation

Past Weather in Penang — Graph

°F

Penang Temperature Yesterday

Maximum temperature yesterday: 88 °F (at 11:00 am)
Minimum temperature yesterday: 75 °F (at 7:00 am)
Average temperature yesterday: 81 °F

High & Low Weather Summary for the Past Weeks

 TemperatureHumidityPressure
High88 °F (Sep 30, 1:00 pm)100% (Sep 30, 2:00 am)29.92 "Hg (Sep 30, 2:00 am)
Low75 °F (Oct 1, 3:00 am)62% (Oct 7, 4:00 pm)29.71 "Hg (Oct 12, 6:00 pm)
Average81 °F86%29.83 "Hg
* Reported Sep 29 8:00 pm — Oct 14 8:00 pm, Penang. Weather by CustomWeather, © 2019

Note: Actual official high and low records may vary slightly from our data, if they occured in-between our weather recording intervals... More about our weather records

Advertising

Penang Weather History for the Previous 24 Hours

Scroll right to see more
 ConditionsComfort  
Time TempWeatherWind HumidityBarometerVisibility
8:00 pm
Mon, Oct 14
79 °FThunderstorms. Partly cloudy.13 mph94%29.83 "Hg4 mi
7:00 pm86 °FThunderstorms. Broken clouds.5 mph75%29.80 "Hg4 mi
6:00 pm86 °FThunderstorms. Broken clouds.9 mph75%29.74 "Hg5 mi
5:00 pm88 °FThunderstorms. Broken clouds.10 mph70%29.74 "Hg5 mi
4:00 pm88 °FBroken clouds.10 mph70%29.74 "Hg6 mi
3:00 pm88 °FScattered showers. Partly sunny.12 mph70%29.77 "Hg5 mi
2:00 pm88 °FPartly sunny.9 mph70%29.80 "HgN/A
1:00 pm88 °FPartly sunny.9 mph70%29.83 "Hg5 mi
12:00 pm86 °FPartly sunny.7 mph75%29.86 "Hg5 mi
11:00 am86 °FPartly sunny.2 mph75%29.89 "Hg5 mi
10:00 am82 °FBroken clouds.3 mph84%29.89 "Hg5 mi
9:00 am79 °FBroken clouds.5 mph89%29.86 "Hg4 mi
8:00 am77 °FBroken clouds.3 mph94%29.83 "Hg4 mi
7:00 am77 °FPartly cloudy.1 mph94%29.80 "Hg4 mi
6:00 am77 °FPartly cloudy.3 mph94%29.80 "Hg4 mi
5:00 am77 °FPartly cloudy.3 mph94%29.80 "Hg4 mi
4:00 am77 °FPartly cloudy.2 mph94%29.80 "Hg4 mi
3:00 am77 °FPartly cloudy.2 mph94%29.83 "Hg4 mi
2:00 am79 °FPartly cloudy.No wind89%29.86 "Hg4 mi
1:00 am79 °FPartly cloudy.2 mph94%29.86 "Hg4 mi
12:00 am79 °FPartly cloudy.3 mph94%29.89 "Hg4 mi
11:00 pm
Sun, Oct 13
79 °FPartly cloudy.3 mph94%29.86 "Hg4 mi
10:00 pm81 °FPartly cloudy.5 mph89%29.86 "Hg4 mi
9:00 pm79 °FPartly cloudy.5 mph100%29.83 "Hg4 mi
Weather by CustomWeather, © 2019

See weather overview